THURAYA-3 (32404 NORAD) Tracking and Keplerian Element Data

This shows tracking and keplerian element data for the satellite.

Feedback or suggestion? Click here.




ElementValue
Catalog32404
NameTHURAYA-3
Epoch Orbit6569
Epoch Day354.14276563
Epoch Year2025
RAAN35.4374
Inclination5.6857
Eccentricity0.0002241
Argument of Perigee231.1639
Mean Anonmoly332.2791
Mean Motion1.00272623
Decay Rate-2.83E-06
L11 32404U 08001A 25354.14276563 -.00000283 00000+0 00000+0 0 9997
L22 32404 5.6857 35.4374 0002241 231.1639 332.2791 1.00272623 65692



Live tracking and technical data element details for THURAYA-3 (NORAD 32404). THURAYA-3 can be tracked NOW for your location showing map with azimuth and elevation plus other details from your city location.







IsCatalogInMostPopularTable: catalog: 32404, numindb: 1533
Update: records affected: 1



GetName: 32404 THURAYA-3

Hit Count: updated at: Thu, 16 Apr 2026 05:02:46 GMT